Miscellaneous Local Product
Issued by NWS North Platte, NE

Home | Current Version | Previous Version | Text Only | Print | Product List | Glossary On
Versions: 1 2 3 4 5 6 7 8 9 10 11 12 13 14 15 16 17 18 19 20 21 22 23 24 25 26 27 28 29 30 31 32 33 34 35 36 37 38 39 40 41 42 43 44 45 46 47 48 49 50
000
AXUS43 KLBF 301510
MISLBF


WESTERN AND NORTH CENTRAL NEBRASKA HOURLY WEATHER ROUNDUP
NATIONAL WEATHER SERVICE NORTH PLATTE NE
1000 AM CDT SAT AUG 30 2014

***STATIONS NOT REPORTING VARIABLES SUCH AS SKY/WEATHER OR
PRESSURE ARE PROVIDED BY THE NEBRASKA DEPARTMENT OF
ROADS...RAWS...AND APRS NETWORKS...AND ARE NOT UNDER
NATIONAL WEATHER SERVICE QUALITY CONTROL***

...OBSERVATIONS IN AND NEAR THE EASTERN PANHANDLE OF NEBRASKA...

CITY           SKY/WX    TMP DP  RH WIND       PRES   REMARKS
PINE RIDGE     SUNNY     67  58  72 S10       29.93F
CHADRON        SUNNY     73  56  54 S12       29.90F
ALLIANCE       SUNNY     68  58  70 S14       29.98F
SIDNEY         SUNNY     68  56  65 S14       30.05S
WHITECLAY        N/A     67  56  67 S16         N/A
RUSHVILLE        N/A     66  56  70 SW23        N/A
GORDON           N/A     69  59  71 S16         N/A
CRESCENT LAKE    N/A     68  58  71 S8          N/A
LISCO            N/A     74  59  59 E13         N/A
$$

...OBSERVATIONS IN NORTH CENTRAL NEBRASKA...

CITY           SKY/WX    TMP DP  RH WIND       PRES   REMARKS
VALENTINE      MOSUNNY   60  58  92 SE7       30.00F
THEDFORD       SUNNY     66  60  80 SE9       30.02S
AINSWORTH      MOSUNNY   61  61 100 CALM      30.01S
O`NEILL        MOSUNNY   64  59  83 CALM      30.00S
ORD            CLOUDY    61  58  90 CALM      30.00S
BROKEN BOW     SUNNY     67  61  81 E6        30.00F
SPRINGVIEW       N/A     61  58  90 CALM        N/A
ROSE             N/A     67  63  86 CALM        N/A
NEWPORT          N/A     66  60  81 CALM        N/A
COMSTOCK         N/A     72  66  80 E3          N/A
CHAMBERS         N/A     69  62  78 W6          N/A
EWING            N/A     65  62  89 CALM        N/A
$$

...OBSERVATIONS IN SOUTHWEST NEBRASKA AND FAR NORTHEAST COLORADO...

CITY           SKY/WX    TMP DP  RH WIND       PRES   REMARKS
WRAY             N/A     69  59  70 SE6       30.04F
HOLYOKE        FAIR      68  61  77 SE8       30.03F
IMPERIAL       SUNNY     67  59  75 SE9       30.03F
OGALLALA       SUNNY     67  59  77 S8        30.02S
NORTH PLATTE   SUNNY     66  59  78 E8        30.02S
MCCOOK         SUNNY     67  60  78 E5        30.02S
LEXINGTON      SUNNY     67  62  83 E7        30.01S
PAXTON           N/A     60  58  94 CALM        N/A
SUTHERLAND       N/A     65  59  79 E6          N/A
BRADY            N/A     66  59  78 NW3         N/A
GOTHENBURG       N/A     63  55  75 E3          N/A
CALLAWAY         N/A     61  61  99 E8          N/A
$$

...SOME WEATHER OBSERVATIONS FROM AROUND THE REGION...

CITY           SKY/WX    TMP DP  RH WIND       PRES   REMARKS
DENVER         MOSUNNY   67  46  47 SW15      30.08F
LARAMIE        SUNNY     61  43  51 SW14      30.17F
CHEYENNE       SUNNY     65  50  58 SW7       30.10F
SCOTTSBLUFF    SUNNY     68  56  65 SE9       29.98F
RAPID CITY     SUNNY     62  57  83 SE13      29.91F
PIERRE         MOSUNNY   61  56  83 SE9       29.95F
WINNER         CLOUDY    60  58  92 S3        29.98F
SIOUX FALLS    CLOUDY    66  62  87 NW12      29.93R
OMAHA          CLOUDY    66  64  93 NW7       29.95R FOG
GRAND ISLAND   SUNNY     69  61  75 NE6       30.00S
KANSAS CITY    MOSUNNY   75  69  81 NW6       29.94S
WICHITA        MOSUNNY   78  67  68 N7        29.97S
HAYS           SUNNY     75  59  57 E7        30.01R
LIBERAL        CLOUDY    75  55  50 S5        30.06S
GOODLAND       SUNNY     69  59  70 W6        30.05F
$$



USA.gov is the U.S. government's official web portal to all federal, state and local government web resources and services.